User: anonymous   Login
Location: Unspecified
(0.0000°N, 0.0000°E)
Time: 03:01:45
(UTC+01:00)
Language:

Cosmos 1295 Rocket - Orbit

View from above orbital plane
View from above orbital plane
View from above satellite
View from above satellite

Ground track
Ground track

The orbit data is extracted from the following two-line orbital elements,

1 12682U 81077B   14324.65635574  .00000047  00000-0  30673-4 0  8192
2 12682 082.9167 358.8146 0035468 099.4353 016.5740 13.78468220673424
Epoch (UTC): 20 November 2014 15:45:09
Eccentricity: 0.0035468
inclination: 82.9167°
perigee height: 943 km
apogee height: 995 km
right ascension of ascending node: 358.8146°
argument of perigee: 99.4353°
revolutions per day: 13.78468220
mean anomaly at epoch: 16.5740°
orbit number at epoch: 67342

The dashed part of the orbit path shows where the satellite is in the earth's shadow,  

DLR